Kosmos-1852

operational
NORAD ID: 18113 Int'l Des: 1987-051 Owner: UNKS Country: SU
LEOCIRCULAR

About Kosmos-1852

Description loading...

Live Position

Loading 3D Globe...

Upcoming Passes

Altitude History

Altitude vs Time

uPlot chart will show altitude changes over time

Two-Line Element Set

1 18113U 87051A 26061.01073884 .00000014 00000-0 21161-3 0 9990
2 18113 74.0007 265.2246 0016448 105.7637 254.5226 12.44884599759093
Epoch: Mar 2, 2026 • Age: 41 hours

Current Status

Altitude 1487.2 km
Velocity 7.12 km/s
Sub-Earth Point 14.55°N, 146.8°W
Launch Date Jun 16, 1987
Age 38.7 years
Type other

Technical Details

Classification Payload
Mass 60.00 kg
Dry Mass 60.00 kg
Total Mass 60.00 kg
Length 0.80 m
Diameter 0.80 m
Span 0.80 m
Shape Poly
Manufacturer NPOPM
Bus Type Strela-1 11F625
Phase Status In Orbit
Owner/State UNKS/SU

Large Constellations

Loading constellations...